This is the latest recevied weather packets stored in our database for station/object N6WDO. If no packets are shown the sender has not sent any weather packets the latest 10 day(s).
| Time | Temp. | Humidity | Pressure | Rain* | Wind** | Luminosity | Snow |
|---|---|---|---|---|---|---|---|
| 1777736883 | 23.33° C | 45% | 1015 hPa | 0 mm | - | 334 W/m² | - |
| 1777736270 | 22.78° C | 47% | 1014.9 hPa | 0 mm | - | 235 W/m² | - |
| 1777735967 | 22.78° C | 53% | 1014.8 hPa | 0 mm | - | 145 W/m² | - |
| 1777735664 | 22.78° C | 50% | 1015.1 hPa | 0 mm | - | 247 W/m² | - |
| 1777735362 | 22.78° C | 51% | 1015 hPa | 0 mm | - | 258 W/m² | - |
| 1777735059 | 22.22° C | 51% | 1014.9 hPa | 0 mm | - | 221 W/m² | - |
| 1777734756 | 21.67° C | 56% | 1014.8 hPa | 0 mm | - | 228 W/m² | - |
| 1777734453 | 20.56° C | 62% | 1014.7 hPa | 0 mm | - | 211 W/m² | - |
| 1777734149 | 20.56° C | 57% | 1014.5 hPa | 0 mm | - | 195 W/m² | - |
| 1777733846 | 20.56° C | 61% | 1014.5 hPa | 0 mm | - | 179 W/m² | - |
| 1777733537 | 20.56° C | 63% | 1014.5 hPa | 0 mm | - | 165 W/m² | - |
| 1777733234 | 20° C | 61% | 1014.7 hPa | 0 mm | - | 153 W/m² | - |
| 1777732931 | 19.44° C | 71% | 1014.7 hPa | 0 mm | - | 141 W/m² | - |
| 1777732627 | 18.89° C | 73% | 1014.3 hPa | 0 mm | - | 126 W/m² | - |
| 1777732325 | 18.33° C | 75% | 1014.3 hPa | 0 mm | - | 115 W/m² | - |
| 1777732022 | 17.78° C | 73% | 1014.4 hPa | 0 mm | - | 99 W/m² | - |
| 1777731718 | 17.22° C | 78% | 1014.3 hPa | 0 mm | - | 94 W/m² | - |
| 1777731415 | 16.11° C | 82% | 1014.4 hPa | 0 mm | - | 83 W/m² | - |
| 1777731114 | 15.56° C | 84% | 1014.3 hPa | 0 mm | - | 67 W/m² | - |
| 1777730812 | 15° C | 84% | 1014.3 hPa | 0 mm | - | 41 W/m² | - |
| 1777730508 | 14.44° C | 84% | 1014.4 hPa | 0 mm | - | 34 W/m² | - |
| 1777730204 | 13.89° C | 84% | 1014.1 hPa | 0 mm | - | 31 W/m² | - |
| 1777729901 | 13.89° C | 85% | 1014.4 hPa | 0 mm | - | 27 W/m² | - |
| 1777729597 | 13.33° C | 85% | 1014 hPa | 0 mm | - | 24 W/m² | - |
| 1777729294 | 13.33° C | 84% | 1013.8 hPa | 0 mm | - | 24 W/m² | - |
* Rain latest hour (hover to see other rain measurements)
** Current wind speed in m/s (hover to see current wind gust speed)